Jan Huber

Scout - Mainz 05
3 Apr 2027
Samstag
Verarbeitung

Persönlichkeit

Anpassungsfähigkeit (19) Ehrgeiz (15) Kontroverse (8) Loyalität (8) Druck (18) Professionalität (7) Fairness (12) Temperament (2)

Profil

Trainerstil Demokratisch
Lizenz Nationale B
Entschlossenheit 8
Menschenführung 11
Motivation 6
Disziplin 8
Arbeitszufriedenheit
77%
Ermüdung
0%
Rolle Scout
Gehalt 100.3K p/W
Vertrag 14.03.2029

Leistung

Verhalten Gut
Trainingseffektivität
30%
Spielerentwicklung
35%
Verletzungsprävention
50%
Taktische Umsetzung
25%

Letzte Ereignisse

Spieler begutachtet jetzt
Nahm an einer Scouting-Besprechung teil jetzt
Spieler begutachtet jetzt
Spieler begutachtet jetzt
Spieler begutachtet 7T her
Spieler begutachtet 7T her
Spieler begutachtet 7T her
Spieler begutachtet 7T her

Aktuell beobachtet

184
Spieler Verein Status Fähigkeit Vertrauen Beobachtet Zuletzt beobachtet Letzte Stimme
Chris Rigg Sunderland Aktiv 132 / 144 40% 2 01.04.2027 -
Alan KAA Gent Aktiv 126 / 129 40% 3 01.04.2027 -
Matteo Dams Club Brugge Aktiv 126 / 127 40% 4 01.04.2027 -
Luca Orellano Monterrey Aktiv 142 / 135 40% 2 01.04.2027 -
Festy Ebosele Basaksehir Aktiv 129 / 127 40% 2 01.04.2027 -
Rodrigo Pinheiro Famalicao Aktiv 127 / 129 40% 1 01.04.2027 -
Haissem Hassan Bloemfontein Celtic Aktiv 136 / 135 40% 7 31.03.2027 -
Figueiredo Alverca Aktiv 136 / 124 40% 2 31.03.2027 -
Andrea Colpani Monza Aktiv 143 / 136 40% 2 31.03.2027 -
Axel Tape Bayer Leverkusen Aktiv 115 / 135 40% 5 30.03.2027 -
Bright Arrey-Mbi Braga Aktiv 139 / 138 40% 2 30.03.2027 -
Ben Nelson Leicester City Aktiv 127 / 136 40% 1 29.03.2027 -
Freddie Potts Club Brugge Aktiv 135 / 133 40% 1 29.03.2027 -
Allahyar Sayyadmanesh Lech Aktiv 124 / 124 40% 3 27.03.2027 -
Imrân Louza Watford Aktiv 127 / 135 40% 2 27.03.2027 -
Mario Stroeykens Anderlecht Aktiv 133 / 125 40% 5 27.03.2027 -
Suleman Sani RB Leipzig Aktiv 118 / 132 40% 1 27.03.2027 -
Markus Jensen Nacional Aktiv 112 / 113 40% 1 27.03.2027 -
Tiago Freitas Benfica Aktiv 101 / 119 40% 1 27.03.2027 -
Rocco Vata Watford Aktiv 116 / 128 40% 2 25.03.2027 -
Jacen Russell-Rowe Toulouse FC Aktiv 120 / 118 40% 1 25.03.2027 -
Bertuğ Yıldırım Basaksehir Aktiv 119 / 120 40% 1 25.03.2027 -
Brian Gutiérrez Guadalajara Aktiv 124 / 135 40% 5 24.03.2027 -
Marlon Gomes Shakhtar Aktiv 122 / 138 40% 4 24.03.2027 -
Ilay Camara Anderlecht Aktiv 138 / 130 40% 2 24.03.2027 -
Gonzalo Plata Dinamo Moscow Aktiv 132 / 128 40% 5 22.03.2027 -
Nazar Voloshyn Dynamo Kyiv Aktiv 141 / 122 40% 5 22.03.2027 -
Carlos Martín Atlético Madrid Aktiv 127 / 130 40% 2 21.03.2027 -
Junior Tchamadeu Stoke City Aktiv 125 / 120 40% 2 20.03.2027 -
Mattia Zanotti Lugano Aktiv 134 / 133 40% 5 19.03.2027 -
Frans Krätzig Red Bull Salzburg Aktiv 129 / 125 40% 2 19.03.2027 -
Pedro Henrique Shakhtar Aktiv 144 / 130 40% 3 19.03.2027 -
Eliás Montiel Pachuca Aktiv 122 / 132 40% 3 18.03.2027 -
Cristian Shpendi Cesena Aktiv 132 / 132 40% 3 18.03.2027 -
Brian Rodríguez Club America Aktiv 126 / 129 40% 4 17.03.2027 -
Oleh Ocheretko Shakhtar Aktiv 144 / 125 40% 1 17.03.2027 -
Mohamed Belloumi Hull City Aktiv 135 / 136 40% 1 16.03.2027 -
Bart van Rooij Twente Aktiv 134 / 139 40% 1 16.03.2027 -
Ilias Sebaoui Sint-Truiden Aktiv 132 / 123 40% 3 15.03.2027 -
Domagoj Bradarić Hellas Verona Aktiv 131 / 133 40% 2 15.03.2027 -
Santi García Gil Vicente Aktiv 136 / 138 40% 3 14.03.2027 -
Gustavo Puerta Racing Santander Aktiv 139 / 143 40% 1 14.03.2027 -
Felipe Augusto Zenit Aktiv 123 / 135 40% 4 13.03.2027 -
Adis Jašić Al Ain Aktiv 119 / 119 40% 1 13.03.2027 -
Otávio Paris FC Aktiv 130 / 138 40% 1 13.03.2027 -
Álex Lizancos Burgos Aktiv 131 / 131 40% 1 13.03.2027 -
Yorbe Vertessen Red Bull Salzburg Aktiv 135 / 127 40% 6 11.03.2027 -
Erik Lira Cruz Azul Aktiv 132 / 134 40% 1 11.03.2027 -
Ringo Meerveld Heerenveen Aktiv 122 / 129 40% 1 11.03.2027 -
Metinho Basel Aktiv 134 / 137 40% 4 10.03.2027 -
Armin Gigović Young Boys Aktiv 132 / 127 40% 1 10.03.2027 -
Marcel Ruiz Toluca Aktiv 136 / 138 40% 4 09.03.2027 -
Thomas Kastanaras FC Augsburg Aktiv 111 / 106 40% 2 08.03.2027 -
Tyreece Campbell Charlton Athletic Aktiv 115 / 124 40% 1 08.03.2027 -
Abdoulie Ceesay St. Pauli Aktiv 108 / 118 40% 1 08.03.2027 -
Vinicius Tobias Shakhtar Aktiv 132 / 136 40% 2 06.03.2027 -
Louis Oppie St. Pauli Aktiv 116 / 121 40% 1 06.03.2027 -
Marezi Portsmouth Aktiv 121 / 128 40% 2 05.03.2027 -
Maurits Kjærgaard Red Bull Salzburg Aktiv 134 / 134 40% 1 05.03.2027 -
Mamadou Coulibaly Al Jazira Aktiv 121 / 126 40% 1 03.03.2027 -
Mandela Keita Parma Aktiv 125 / 132 40% 1 03.03.2027 -
Nacer Tielemans Mouscron Aktiv 135 / 134 40% 2 02.03.2027 -
Josh Coburn Millwall Aktiv 113 / 115 40% 2 01.03.2027 -
Freddie Draper Lincoln City Aktiv 107 / 118 40% 1 01.03.2027 -
Will Lankshear Middlesbrough Aktiv 131 / 128 40% 1 01.03.2027 -
Bryan González Guadalajara Aktiv 133 / 135 40% 2 26.02.2027 -
Gabriel Sara Galatasaray Aktiv 144 / 134 40% 1 26.02.2027 -
Lorenzo Amatucci Deportivo La Coruña Aktiv 133 / 136 40% 2 22.02.2027 -
Thierry Rendall Correia Venezia Aktiv 145 / 141 40% 2 22.02.2027 -
Mahamadou Doumbia Al-Ittihad Aktiv 143 / 133 40% 1 20.02.2027 -
Dávid Strelec Middlesbrough Aktiv 141 / 132 40% 1 20.02.2027 -
Luciano Gondou CSKA Moscow Aktiv 124 / 124 40% 6 16.02.2027 -
Yanis Begraoui Estoril Praia Aktiv 136 / 132 40% 1 16.02.2027 -
Alexandr Chernikov Krasnodar Aktiv 146 / 132 40% 1 13.02.2027 -
Richard Ledezma Guadalajara Aktiv 146 / 134 40% 2 11.02.2027 -
Aral Şimşir Trabzonspor Aktiv 127 / 130 40% 2 11.02.2027 -
Eric Ramires Bragantino Aktiv 116 / 132 40% 4 10.02.2027 -
Sébastien Durand Tours Aktiv 144 / 142 40% 3 10.02.2027 -
Isma Ruiz Córdoba Aktiv 123 / 130 40% 2 05.02.2027 -
Vitinho Botafogo Aktiv 146 / 133 40% 1 28.12.2026 -
Cesar Corona Veracruz Aktiv 130 / 137 40% 6 27.12.2026 -
Terem Moffi Hamburger SV Aktiv 123 / 129 40% 2 27.12.2026 -
Francis Amuzu Grêmio Aktiv 143 / 128 40% 1 27.12.2026 -
Rilind Nivokazi Sion Aktiv 121 / 117 40% 1 27.12.2026 -
Alvyn Sanches Young Boys Aktiv 135 / 138 40% 4 22.12.2026 -
Maurits Kjærgaard Red Bull Salzburg Verloren 125 / 128 40% 5 21.12.2026 -
Matteo di Giusto Luzern Aktiv 122 / 121 40% 3 19.12.2026 -
Fidel Ambríz Monterrey Aktiv 122 / 130 40% 4 19.12.2026 -
Andrin Hunziker St. Gallen Aktiv 109 / 116 40% 1 19.12.2026 -
Exequiel Zeballos Boca Juniors Aktiv 141 / 132 40% 3 16.12.2026 -
Rodrigo Huescas FC Copenhagen Aktiv 127 / 126 40% 2 12.12.2026 -
César Huerta Pumas UNAM Aktiv 120 / 125 40% 1 12.12.2026 -
Sinan Karweina Luzern Aktiv 108 / 114 40% 2 11.12.2026 -
Luciano Juba Bahia Aktiv 132 / 131 40% 1 11.12.2026 -
Kaio Jorge Cruzeiro Aktiv 131 / 135 40% 1 11.12.2026 -
Brayan Gil Baltika Aktiv 122 / 122 40% 1 11.12.2026 -
Furkan Dursun Thun Aktiv 99 / 99 40% 2 10.12.2026 -
Philippe Keny Zurich Aktiv 125 / 120 40% 2 10.12.2026 -
Mateo Fernández Angusht Aktiv 91 / 71 40% 1 10.12.2026 -
Lucas Piton Vasco da Gama Aktiv 120 / 122 40% 2 05.12.2026 -
Luca Orellano Monterrey Verloren 135 / 134 40% 3 02.12.2026 -
José Paradela Cruz Azul Aktiv 133 / 133 40% 2 29.11.2026 -
Ignacio Russo Tigre Aktiv 112 / 127 40% 2 27.11.2026 -
Ilyas Chouaref Sion Aktiv 117 / 124 40% 1 27.11.2026 -
Jalen Blesa Rio Ave Aktiv 122 / 118 40% 1 27.11.2026 -
Josias Lukembila Sion Aktiv 124 / 121 40% 1 26.11.2026 -
Adriano Bertaccini Anderlecht Aktiv 120 / 124 40% 1 26.11.2026 -
Dejan Djokic Vaduz Aktiv 107 / 101 40% 2 22.11.2026 -
Matthew Hoppe SonderjyskE Aktiv 121 / 106 40% 1 22.11.2026 -
Yoann Cathline Utrecht Aktiv 134 / 134 40% 2 21.11.2026 -
Petter Nosa Dahl Rapid Wien Aktiv 127 / 127 40% 1 18.11.2026 -
Juan Bisanz Huracán Aktiv 135 / 134 40% 1 17.11.2026 -
Adrià Altimira Deportivo La Coruña Aktiv 137 / 126 40% 1 15.11.2026 -
Tadeo Allende Inter Miami CF Aktiv 115 / 117 40% 2 13.11.2026 -
Diego Lainez Tigres Aktiv 122 / 129 40% 3 12.11.2026 -
Michy Fellaini KV Oostende Aktiv 136 / 137 40% 7 10.11.2026 -
Juan-José Perea Zurich Aktiv 119 / 125 40% 3 10.11.2026 -
Esequiel Barco Spartak Moscow Aktiv 144 / 129 40% 1 09.11.2026 -
Christian Krasnodar Aktiv 145 / 133 40% 1 09.11.2026 -
Yassine Kechta Leganés Aktiv 122 / 133 40% 1 07.11.2026 -
Gustavo Mantuan Zenit Aktiv 120 / 126 40% 1 07.11.2026 -
Vinícius Lopes Santa Clara Aktiv 131 / 121 40% 1 06.11.2026 -
Chupete Málaga Aktiv 133 / 132 40% 2 04.11.2026 -
Alexander Díaz Deportivo Riestra Aktiv 115 / 125 40% 1 04.11.2026 -
José Manuel López Palmeiras Aktiv 133 / 137 40% 1 03.11.2026 -
Dejan Joveljić Seattle Sounders Aktiv 120 / 130 40% 1 03.11.2026 -
Manfred Ugalde Spartak Moscow Aktiv 141 / 127 40% 1 01.11.2026 -
Fabian Rieder FC Augsburg Aktiv 125 / 137 40% 1 31.10.2026 -
Iván Martín Racing Club Aktiv 135 / 139 40% 2 29.10.2026 -
Favio Cabral Mitre Aktiv 123 / 117 40% 1 24.10.2026 -
Ousmane Camara Castellón Aktiv 123 / 121 40% 1 24.10.2026 -
Félix Lemaréchal Club Brugge Aktiv 131 / 139 40% 2 22.10.2026 -
Carlos Palacios Boca Juniors Aktiv 139 / 129 40% 2 22.10.2026 -
David Da Costa Portland Timbers Aktiv 122 / 133 40% 2 21.10.2026 -
Wessam Abou Ali Columbus Crew Aktiv 129 / 130 40% 2 21.10.2026 -
Jefry Zapata Once Caldas Aktiv 115 / 122 40% 2 21.10.2026 -
Oliver Skipp Leicester City Aktiv 121 / 133 40% 1 21.10.2026 -
Alex Luna Instituto Aktiv 116 / 123 40% 1 15.10.2026 -
Alan Velasco Boca Juniors Aktiv 119 / 124 40% 2 14.10.2026 -
Håkon Evjen Bodo/Glimt Aktiv 145 / 122 40% 1 14.10.2026 -
Orkun Kökçü Besiktas Aktiv 154 / 150 40% 1 14.10.2026 -
Franco Fagúndez Estudiantes Aktiv 121 / 110 40% 2 12.10.2026 -
Juan Carlos Arana Racing Santander Aktiv 121 / 124 40% 1 10.10.2026 -
Tiago Palacios Estudiantes Aktiv 119 / 123 40% 1 06.10.2026 -
Jeon Jin-Woo Albirex Niigata Aktiv 134 / 128 40% 3 04.10.2026 -
Efraín Álvarez Guadalajara Aktiv 121 / 128 40% 1 04.10.2026 -
Nuno Moreira Vasco da Gama Aktiv 137 / 126 40% 1 04.10.2026 -
Anton Kade FC Augsburg Aktiv 120 / 129 40% 1 26.09.2026 -
Luis Sinisterra Cruzeiro Aktiv 141 / 141 40% 1 26.09.2026 -
Marcos López San Martín Aktiv 136 / 122 40% 1 25.09.2026 -
Lucas Sanabria LA Galaxy Aktiv 125 / 133 40% 1 23.09.2026 -
Marquinhos Spartak Moscow Aktiv 127 / 126 40% 1 21.09.2026 -
Furkan Demir Borussia Mönchengladbach Aktiv 126 / 130 40% 1 14.09.2026 -
Breno Bidon Corinthians Aktiv 137 / 139 40% 1 14.09.2026 -
Nahuel Herrera Penarol Aktiv 133 / 129 40% 2 12.09.2026 -
Jaydee Canvot Crystal Palace Aktiv 123 / 134 40% 1 12.09.2026 -
Joel Godoy Sevilla Aktiv 109 / 119 40% 1 10.09.2026 -
Kyriani Sabbe Club Brugge Aktiv 115 / 120 40% 1 10.09.2026 -
Oscar Højlund Eintracht Frankfurt Aktiv 126 / 137 40% 2 03.09.2026 -
Jon Martín Real Sociedad Aktiv 122 / 136 40% 1 03.09.2026 -
Sergio Quintero La Equidad Aktiv 137 / 148 40% 2 01.09.2026 -
Ezechiel Banzuzi RB Leipzig Aktiv 120 / 139 40% 3 31.08.2026 -
Simphiwe Selepe Orlando Pirates Aktiv 118 / 104 40% 1 31.08.2026 -
Ryunosuke Sato Valencia Aktiv 128 / 128 40% 1 31.08.2026 -
Tony Strata Vitoria Guimaraes Aktiv 111 / 122 40% 1 27.08.2026 -
Francisco Chissumba Braga Aktiv 107 / 119 40% 1 27.08.2026 -
Obed Vargas Atlético Madrid Aktiv 113 / 125 40% 1 26.08.2026 -
Livan Burcu Union Berlin Aktiv 112 / 123 40% 1 26.08.2026 -
Teun Gijselhart Deportivo La Coruña Aktiv 106 / 118 40% 1 26.08.2026 -
Héctor Fort Real Sociedad Aktiv 139 / 134 40% 1 26.08.2026 -
Bobby Clark Derby County Aktiv 118 / 132 40% 1 23.08.2026 -
John Mellberg Red Bull Salzburg Aktiv 109 / 118 40% 1 21.08.2026 -
Samuel Marques Grasshopper Aktiv 115 / 114 40% 1 21.08.2026 -
Harrison Armstrong Everton Aktiv 128 / 136 40% 1 21.08.2026 -
Jonathan Arteaga Veracruz Aktiv 104 / 124 40% 1 20.08.2026 -
Lautaro Millán Independiente Aktiv 126 / 121 40% 1 20.08.2026 -
Ayoube Amaimouni-Echghouyab Eintracht Frankfurt Aktiv 128 / 126 40% 1 18.08.2026 -
Jacob Peter Hödl Austria Wien Aktiv 113 / 126 40% 1 18.08.2026 -
Dayann Methalie Sunderland Aktiv 132 / 127 40% 1 15.08.2026 -
Finn Jeltsch VfB Stuttgart Aktiv 130 / 141 40% 1 15.08.2026 -
Albian Ajeti Basel Aktiv 117 / 122 40% 1 02.08.2026 -
Lars Villiger Luzern Aktiv 116 / 123 40% 1 02.08.2026 -
Samuel Essende Young Boys Aktiv 132 / 123 40% 1 02.08.2026 -
Jeremy Arévalo VfB Stuttgart Aktiv 112 / 133 40% 1 02.08.2026 -